www.pogodaiklimat.ru

АРХИВ ПОГОДЫ в Ростове-на-Дону

Время (UTC), дата Ветер
(напр.,м/с)
 
Видим.   Явления Облачность Т
(С)
Тd
(С)
f
(%)
Тe
(С)
Тes
(С)
Комфортность P
(гПа)
Po
(гПа)
Тmin
(С)
Tmax
(С)
R
(мм)
S
(см)
09 20.04 З 10-15
{16}
10 км {ливн. осадки} 9/6 700 м
[Cb calv Ac trans]
+9.4 +2.3 61 +5 +5 очень
холодно
1005.0 996.0
12 20.04 З 11-16
{20}
10 км в посл. час ливневой дождь [макс. диам. градин 2 мм] 8/4 300 м
[Cb calv Ac trans]
+10.0 +1.3 55 +6 +6 очень
холодно
1004.1 995.1
15 20.04 ЮЗ 7-11
{20}
10 км в посл. час ливневой дождь [макс. диам. градин 2 мм] 9/4 300 м
[Cb calv Ac trans]
+6.1 +3.6 84 +1 +1 очень
холодно
1004.2 995.1 +10.3 3
18 20.04 ЮЗ 6
{20}
4400 м слабый ливневой дождь [макс. диам. градин 2 мм] 10/6 180 м
[Cb calv Ac und]
+4.7 +3.7 93 -1 -1 очень
холодно
1004.5 995.4
21 20.04 ЮЗ 10-13
{14}
4000 м слабый ливневой дождь 10/6 210 м
[Cb calv Ac und]
+4.7 +3.7 93 -2 -2 очень
холодно
1003.3 994.2
00 21.04 ЮЗ 6
{14}
8000 м слабый ливневой дождь 10/8 210 м
[Cb calv Ac und]
+4.1 +3.2 94 -2 -2 очень
холодно
1002.3 993.2
03 21.04 ЮЗ 7-10
{12}
10 км слабый ливневой дождь 10/6 240 м
[Cb calv Ac und]
+4.5 +3.2 91 -1 -1 очень
холодно
1003.1 994.0 +3.9 17
06 21.04 ЮЗ 5
{12}
10 км слабый ливневой дождь 9/6 400 м
[Cb calv Ac trans]
+5.7 +3.3 85 +1 +2 очень
холодно
1003.8 994.7
09 21.04 З 5 10 км {ливн. осадки} 6/4 600 м
[Cb calv Ac trans]
+9.0 +1.5 59 +6 +10 холодно 1004.5 995.5
12 21.04 З 6 10 км {ливн. осадки} 6/4 1000 м
[Cb calv Ac trans Ci fib]
+7.3 +1.7 68 +3 +5 очень
холодно
1006.1 997.0
15 21.04 С 4 10 км в посл. час ливневой дождь 6/4 600 м
[Sc Ac trans]
+6.1 -0.4 63 +3 +3 очень
холодно
1007.9 998.8 +9.2 0.8
18 21.04 СЗ 4 8000 м в посл. час крупа {ливн. осадки} 9/5 960 м
[Cb calv Ac trans]
+3.3 +0.7 83 -1 -1 очень
холодно
1010.9 1001.7
21 21.04 З 1 8000 м {ливн. осадки} 3/0
[Ac trans]
+2.2 -0.4 83 +1 +1 холодно 1011.6 1002.3
00 22.04 З 2 8000 м 3/0
[Ac trans]
+1.1 -1.3 84 -2 -2 очень
холодно
1011.7 1002.4
03 22.04 З 3 10 км 4/0
[Ac trans]
+2.2 -1.8 75 -2 -2 очень
холодно
1011.7 1002.4 +0.4 0.0
06 22.04 З 3 10 км 6/0
[Ac trans]
+6.3 -0.1 64 +4 +8 холодно 1012.4 1003.2
09 22.04 З 7-10
{11}
10 км в посл. час ливневой дождь 8/5 800 м
[Cb calv Ac trans]
+7.8 +0.2 59 +4 +5 очень
холодно
1012.8 1003.7
12 22.04 З 6
{11}
10 км {ливн. осадки} 8/5 900 м
[Cb calv Ac trans]
+7.8 +3.5 74 +4 +5 очень
холодно
1013.2 1004.1
15 22.04 З 6 10 км {ливн. осадки} 6/6 900 м
[Cb calv]
+8.5 +1.5 61 +5 +5 очень
холодно
1014.1 1005.0 +9.2 0.0
18 22.04 З 1 8000 м {ливн. осадки} 3/0
[Ac trans]
+6.3 +0.8 68 +6 +6 прохладно 1016.1 1006.9
21 22.04 З 2 7000 м дым 3/0
[Ac trans]
+3.6 -0.2 76 +1 +1 холодно 1017.1 1007.8
00 23.04 З 2 8000 м ясно +3.0 -1.4 73 0 0 холодно 1016.9 1007.6
03 23.04 З 2 10 км ясно +1.8 -0.9 82 -1 -1 очень
холодно
1017.2 1007.9 +1.0
06 23.04 З 4 10 км ясно +8.2 +1.3 62 +5 +11 холодно 1018.1 1009.0
09 23.04 ЮЗ 7-11
{10}
10 км 5/4 1000 м
[Cu med, cong Ac trans]
+11.0 -1.5 42 +8 +10 прохладно 1017.0 1008.0
12 23.04 З 7-11
{11}
10 км 6/4 600 м
[Sc Ac trans Ci fib]
+12.8 -1.2 38 +10 +12 холодно 1015.8 1006.8
15 23.04 З 7-11
{12}
10 км 6/0
[Ac trans Ci fib]
+11.3 -1.0 42 +9 +9 прохладно 1015.2 1006.2 +13.0
18 23.04 ЮЗ 7
{12}
8000 м 3/0
[Ac trans]
+8.8 +0.7 57 +5 +5 холодно 1016.1 1007.0
21 23.04 ЮЗ 5 8000 м 1/0
[Ac trans]
+6.4 +2.0 73 +2 +2 холодно 1016.2 1007.0
00 24.04 ЮЗ 5 8000 м 1/0
[Ac trans]
+6.2 +3.5 83 +2 +2 прохладно 1015.4 1006.2
03 24.04 ЮЗ 5 10 км 4/0
[Ci fib]
+6.0 +3.7 85 +2 +2 холодно 1014.8 1005.6 +5.6
06 24.04 ЮЗ 11-14
{14}
10 км 8/4 300 м
[St Ac trans Ci fib]
+10.8 +5.4 69 +7 +7 прохладно 1014.8 1005.8
09 24.04 З 11-15
{17}
10 км 6/1 600 м
[Cu hum Ac trans Ci fib]
+13.9 +4.8 54 +11 +11 по сезону 1014.6 1005.7
12 24.04 З 12-17
{18}
10 км 8/0
[Ac trans Ci fib]
+14.6 +5.5 54 +12 +12 прохладно 1014.0 1005.1
15 24.04 З 9-15
{19}
10 км 9/0
[Ac trans Ci fib]
+14.2 +4.9 54 +12 +12 по сезону 1014.4 1005.5 +15.3
18 24.04 ЮЗ 9-12
{19}
8000 м 9/0
[Ac trans Ci fib]
+11.6 +4.5 62 +8 +8 прохладно 1016.3 1007.3
21 24.04 З 8-11
{14}
8000 м 5/0
[Ac trans]
+9.7 +5.0 73 +6 +6 прохладно 1017.4 1008.3
00 25.04 З 7-10
{14}
8000 м 5/0
[Ac trans]
+8.9 +5.9 81 +5 +5 по сезону 1017.3 1008.2
03 25.04 З 8-12
{13}
10 км 6/5 300 м
[St Ac trans]
+8.6 +6.1 84 +4 +4 прохладно 1018.0 1008.9 +8.4
06 25.04 З 9-16
{14}
10 км 4/4 600 м
[Sc]
+11.6 +6.3 70 +8 +9 прохладно 1018.4 1009.4
09 25.04 З 12-17
{17}
10 км ясно +14.1 +4.7 53 +11 +11 по сезону 1018.7 1009.7
12 25.04 З 8-13
{17}
10 км ясно +15.1 +1.8 41 +13 +15 прохладно 1017.6 1008.7
15 25.04 З 10-15
{19}
10 км ясно +14.3 +3.4 48 +12 +12 по сезону 1017.1 1008.2 +15.4
18 25.04 З 8-11
{19}
8000 м 4/0
[Ac trans Ci fib]
+11.6 +5.1 64 +8 +8 прохладно 1018.5 1009.5
21 25.04 З 7-11
{13}
10 км 4/0
[Ci fib]
+10.3 +6.2 76 +7 +7 по сезону 1018.9 1009.8
00 26.04 З 6
{13}
8000 м 3/0
[Ci fib]
+9.7 +6.6 81 +6 +6 по сезону 1018.7 1009.6
03 26.04 З 2 10 км 4/0
[Ci fib]
+9.2 +7.2 87 +7 +8 по сезону 1019.4 1010.3 +9.1
06 26.04 Ю 1 10 км 3/0
[Ci fib]
+13.5 +7.1 65 +14 +23 тепло 1020.0 1011.0
09 26.04 ЮВ 2 10 км 4/0
[Ac trans Ci fib]
+18.4 +8.6 53 +19 +32 опасность
простуды
1019.4 1010.6
12 26.04 ЮЗ 1 10 км 3/1 1000 м
[Cu hum Ci fib]
+20.6 +8.6 46 +23 +34 комфорт 1017.8 1009.1
15 26.04 ЮЗ 3 10 км 5/1 1000 м
[Cb calv Ci fib]
+20.1 +8.4 47 +22 +22 комфорт 1017.1 1008.4 +21.1
18 26.04 СЗ 2 8000 м 3/0
[Ac trans]
+15.2 +6.5 56 +15 +15 тепло 1017.7 1008.8
21 26.04 СВ 2 8000 м дым ясно +12.2 +5.8 65 +11 +11 по сезону 1017.6 1008.6
00 27.04 штиль 0 8000 м дым ясно +13.8 +7.2 64 +14 +14 тепло 1017.3 1008.4
03 27.04 В 3 10 км ясно +11.5 +7.3 75 +10 +10 по сезону 1017.6 1008.6 +11.1
06 27.04 Ю 3 10 км ясно +17.7 +8.9 56 +18 +25 тепло 1017.7 1008.9

 

Местоположение метеостанции Ростов-на-Дону (Ростовская область, Россия): широта 47.27 долгота 39.82 высота над уровнем моря 75 м.

В архиве по умолчанию представлена погода в Ростове-на-Дону за последнюю неделю. Архивные данные за месяц целиком и за предыдущие месяцы, начиная с января 2011 года, Вы можете получить, выбрав интересующий диапазон дат из раскрывающегося списка и нажав кнопку "Ввод!".

Внимание! Время в таблицах - всемирное. Для получения местного времени необходимо прибавить поправку, которая в Ростове-на-Дону равна 3 ч.

Ветер - указаны скорость ветра в м/с - средняя за 10 мин, порывы в срок и между сроками (в фигурных скобках) и направление, откуда дует ветер: С - северный, СВ - северо-восточный, В - восточный, ЮВ - юго-восточный, Ю - южный, ЮЗ - юго-западный, З - западный, СЗ - северо-западный.
Видимость - горизонтальная дальность видимости в метрах или километрах. При видимости от 1 до 10 км при отсутствии осадков обычно наблюдается дымка, при ухудшении видимости до 1 км и менее - туман. В сухую погоду видимость может ухудшаться дымом, пылью или мглою.
Явления - указаны атмосферные явления, наблюдавшиеся в срок или в последний час перед сроком; фигурными скобками обозначены явления, наблюдавшиеся между сроками (за 1-3 часа до срока); квадратными скобками обозначены град или гололедные отложения с указанием их диаметра в мм.
Облачность - указаны через наклонную черту общая и нижняя облачность в баллах и высота нижней границы облаков в метрах; квадратными скобками обозначены формы облаков: Ci - перистые, Cs - перисто-слоистые, Cc - перисто-кучевые, Ac - высококучевые, As - высокослоистые, Sc - слоисто-кучевые, Ns - слоисто-дождевые, Cu - кучевые, Cb - кучево-дождевые. Подробнее классификацию облаков см. в Атласе облаков (PDF).
T - Температура воздуха - температура, измеренная на высоте 2 м над землей.
Td - Температура точки росы - температура, при понижении до которой содержащийся в воздухе водяной пар достигнет насыщения.
f - Относительная влажность воздуха - влажноcть воздуха, измеренная на высоте 2 м над землей.
Te - Эффективная температура - температура, которую ощущает одетый по сезону человек в тени. Характеристика душности погоды. При расчете учитывается влияние влажности воздуха и скорости ветра на теплоощущения человека.
Tes - Эффективная температура на солнце - температура, которую ощущает человек, с поправкой на солнечный нагрев. Характеристика знойности погоды. Зависит от высоты солнца над горизонтом, облачности и скорости ветра. Ночью, в пасмурную погоду, а также при ветре 12 м/с и более поправка равна нулю.
P - Атмосферное давление - приведенное к уровню моря атмосферное давление.
Po - Атмосферное давление - измеренное на уровне метеостанции атмосферное давление.
Tmin - Минимальная температура - минимум температуры воздуха на высоте 2 м над землей.
Tmax - Максимальная температура - максимум температуры воздуха на высоте 2 м над землей.
R - Количество осадков - Количество выпавших осадков, мм. При наведении курсора мыши на число - период времени, за который выпало указанное количество осадков.
S - Снежный покров - Высота снежного покрова, см. При наведении курсора мыши на число - состояние снежного покрова и степень покрытия местности в баллах.